SPACECUBE

Last updated on Sat Mar 02 2019 00:02:07 GMT+0000 (Coordinated Universal Time)

1 42717U 98067LY 19059.60577340 .11886658 12464-4 71601-3 0 9999 2 42717 51.6020 100.2529 0001466 12.7224 347.7311 16.41511985101572

Satellite not in orbit